Location: D�derode
(51.8092°N, 10.1065°E)
Time: 05:07:51
(UTC+00:00)

X-37B - Pass Details

Date: 01 December 2020
Orbit: 383 x 391 km, 45.1° (Epoch: 22 January)

Event Time Altitude Azimuth Distance (km) Brightness Sun altitude
Rises 17:21:01 0° 237° (WSW) 2,257 5.7 -18.9°
Reaches altitude 10° 17:23:22 10° 221° (SW) 1,407 4.1 -19.3°
Enters shadow 17:25:49 21° 170° (S) 927 2.5 -19.6°
